CW8812 Weather Reports


Display with metric or nautical units.
time (UTC)temp
F
wind
direction
speed
MPH
gust
MPH
rain 1hr
in
rain 24hr
in
rain mn
in
humidity
%
barometer
mb
20260505003538 60 203 1.0 6.0 0.00 0.00 0.00 71 1007.5
20260505002517 60 225 1.0 6.0 0.00 0.00 0.00 71 1007.3
20260505001517 61 225 3.0 6.0 0.00 0.00 0.00 70 1007.3
20260505000537 61 0.0 0.0 0.00 0.00 0.00 69 1007.2
20260504235517 61 225 2.0 7.0 0.00 0.00 0.00 69 1007.1
20260504234517 61 203 1.0 4.0 0.00 0.00 0.00 68 1007.1
20260504233517 62 203 2.0 6.0 0.00 0.00 0.00 67 1007.1
20260504232518 62 203 2.0 7.0 0.00 0.00 0.00 66 1007.1
20260504231518 62 203 1.0 7.0 0.00 0.00 0.00 65 1007.1
20260504230538 62 225 1.0 6.0 0.00 0.00 0.00 66 1007.2
20260504225537 62 203 2.0 5.0 0.00 0.00 0.00 66 1007.1
20260504224518 62 203 2.0 7.0 0.00 0.00 0.00 65 1007.1
20260504223517 63 0.0 5.0 0.00 0.00 0.00 64 1007.1
20260504222517 63 270 1.0 6.0 0.00 0.00 0.00 64 1007.1
20260504221517 64 270 2.0 5.0 0.00 0.00 0.00 63 1007.1
20260504220538 63 225 1.0 4.0 0.00 0.00 0.00 64 1007.1
20260504215518 63 203 2.0 6.0 0.00 0.00 0.00 64 1007.2
20260504214517 63 203 3.0 6.0 0.00 0.00 0.00 64 1007.2
20260504213516 63 203 3.0 8.0 0.00 0.00 0.00 64 1007.2
20260504212517 64 225 1.0 6.0 0.00 0.00 0.00 63 1007.3
20260504211517 64 225 2.0 6.0 0.00 0.00 0.00 62 1007.3
20260504210516 64 225 1.0 5.0 0.00 0.00 0.00 62 1007.3
20260504205516 64 203 3.0 7.0 0.00 0.00 0.00 62 1007.4
20260504204520 65 203 2.0 5.0 0.00 0.00 0.00 62 1007.4
20260504203557 66 225 1.0 6.0 0.00 0.00 0.00 60 1007.5
20260504202516 65 225 4.0 10.0 0.00 0.00 0.00 59 1007.4
20260504201537 65 225 4.0 9.0 0.00 0.00 0.00 58 1007.4
20260504200516 66 225 3.0 8.0 0.00 0.00 0.00 58 1007.4
20260504195517 66 225 3.0 7.0 0.00 0.00 0.00 58 1007.5
20260504194536 66 225 3.0 6.0 0.00 0.00 0.00 57 1007.5
20260504193517 66 203 2.0 6.0 0.00 0.00 0.00 56 1007.7
20260504192517 66 225 2.0 5.0 0.00 0.00 0.00 57 1007.8
20260504191516 66 225 3.0 8.0 0.00 0.00 0.00 57 1007.8
20260504190516 67 225 3.0 8.0 0.00 0.00 0.00 54 1008.0
20260504185516 67 203 2.0 7.0 0.00 0.00 0.00 55 1008.3
20260504184516 67 0.0 3.0 0.00 0.00 0.00 55 1008.3
20260504183516 66 203 3.0 6.0 0.00 0.00 0.00 56 1008.4
20260504182517 67 203 3.0 8.0 0.00 0.00 0.00 56 1008.6
20260504181517 68 180 1.0 5.0 0.00 0.00 0.00 54 1008.6
20260504180516 68 203 1.0 7.0 0.00 0.00 0.00 53 1008.7
20260504175516 68 225 1.0 6.0 0.00 0.00 0.00 54 1008.8
20260504174516 67 225 1.0 6.0 0.00 0.00 0.00 57 1008.8
20260504173516 68 225 1.0 5.0 0.00 0.00 0.00 53 1009.0
20260504172517 68 225 2.0 6.0 0.00 0.00 0.00 54 1009.1
20260504171516 67 203 2.0 6.0 0.00 0.00 0.00 54 1009.1
20260504170517 68 225 1.0 5.0 0.00 0.00 0.00 54 1009.4
20260504150516 66 203 3.0 7.0 0.00 0.00 0.00 45 1010.4
20260504140516 65 270 4.0 11.0 0.00 0.00 0.00 40 1010.6
20260504130515 62 225 2.0 6.0 0.00 0.00 0.00 52 1011.1
20260504110537 50 0.0 0.0 0.00 0.00 0.00 74 1011.9
20260504100537 46 0.0 0.0 0.00 0.00 0.00 74 1012.1
20260504081517 49 0.0 0.0 0.00 0.00 0.00 70 1011.7
20260504080518 49 0.0 0.0 0.00 0.00 0.00 71 1011.7
20260504050518 50 0.0 0.0 0.00 0.00 0.00 67 1011.2
20260504045517 50 0.0 0.0 0.00 0.00 0.00 66 1011.1
20260504044518 51 0.0 0.0 0.00 0.00 0.00 65 1011.1
20260504043516 51 0.0 0.0 0.00 0.00 0.00 64 1011.0
20260504042517 51 0.0 0.0 0.00 0.00 0.00 63 1011.0
20260504041538 50 0.0 0.0 0.00 0.00 0.00 64 1011.0
20260504040516 50 0.0 0.0 0.00 0.00 0.00 64 1010.8
20260504035517 50 0.0 0.0 0.00 0.00 0.00 66 1010.7
20260504034515 50 0.0 0.0 0.00 0.00 0.00 65 1010.7
20260504033515 49 0.0 0.0 0.00 0.00 0.00 63 1010.7
20260504032516 49 0.0 0.0 0.00 0.00 0.00 61 1010.6
20260504031515 50 0.0 0.0 0.00 0.00 0.00 60 1010.6
20260504030519 50 0.0 0.0 0.00 0.00 0.00 58 1010.6
20260504025515 50 0.0 0.0 0.00 0.00 0.00 56 1010.6
20260504024518 51 0.0 0.0 0.00 0.00 0.00 54 1010.6
20260504023518 51 0.0 0.0 0.00 0.00 0.00 52 1010.6
20260504022517 51 0.0 0.0 0.00 0.00 0.00 50 1010.5
20260504021538 51 0.0 0.0 0.00 0.00 0.00 48 1010.5
20260504020517 51 0.0 0.0 0.00 0.00 0.00 49 1010.5
20260504015517 51 0.0 0.0 0.00 0.00 0.00 48 1010.5
20260504014538 51 0.0 0.0 0.00 0.00 0.00 48 1010.5
20260504013517 51 0.0 0.0 0.00 0.00 0.00 48 1010.3
20260504012517 52 0.0 0.0 0.00 0.00 0.00 48 1010.2
20260504011517 52 0.0 0.0 0.00 0.00 0.00 47 1010.2
20260504010517 53 0.0 0.0 0.00 0.00 0.00 44 1010.1
20260504005539 53 0.0 0.0 0.00 0.00 0.00 43 1009.6
20260504004537 54 0.0 0.0 0.00 0.00 0.00 41 1009.6